Regional Weather Roundup
Issued by NWS

Home | Current Version | Previous Version | Graphics & Text | Print | Product List | Glossary On
Versions: 1 2 3 4 5 6 7 8 9 10 11 12 13 14 15 16 17 18 19 20 21 22 23 24 25 26 27 28 29 30 31 32 33 34 35 36 37 38 39 40 41 42 43 44 45 46 47 48 49 50
000
ASUS45 KBOI 190910
RWRID

IDAHO REGIONAL WEATHER ROUNDUP
NATIONAL WEATHER SERVICE BOISE ID
200 AM MST SUN NOV 19 2017

NOTE: "FAIR" INDICATES FEW OR NO CLOUDS BELOW 12000 FEET
WITH NO SIGNIFICANT WEATHER AND/OR OBSTRUCTIONS TO VISIBILITY

IDZ012-014-191000-
SOUTHWEST IDAHO


CITY           SKY/WX    TMP DP  RH WIND       PRES   REMARKS
BOISE          PTCLDY    34  21  59 SE9       30.24F WCI  27
CALDWELL       PTCLDY    33  25  72 E10       30.25F WCI  25
MOUNTAIN HOME  PTCLDY    31  27  85 SE13      30.25F WCI  21
$$

IDZ016-017-191000-
SOUTHCENTRAL IDAHO


CITY           SKY/WX    TMP DP  RH WIND       PRES   REMARKS
BURLEY         PTCLDY    27  23  85 CALM      30.26F
JEROME         PTCLDY    28  23  81 NE18      30.26F WCI  15
TWIN FALLS     PTCLDY    22  20  92 S3        30.25F
$$

IDZ019>023-191000-
SOUTHEAST IDAHO


CITY           SKY/WX    TMP DP  RH WIND       PRES   REMARKS
IDAHO FALLS    CLOUDY    21  19  92 N5        30.32F WCI  15
POCATELLO      CLOUDY    24  22  91 N5        30.30F WCI  18
REXBURG        CLOUDY    23  21  92 E3        30.32F
$$

IDZ006-010-011-018-031-032-191000-
CENTRAL IDAHO MOUNTAINS


CITY           SKY/WX    TMP DP  RH WIND       PRES   REMARKS
MCCALL         MOCLDY    23  19  85 CALM      30.19F
HAILEY         PTCLDY    23  16  74 NW9       30.30F WCI  13
STANLEY          N/A      6   2  83 CALM      30.24F
SALMON         CLOUDY    23  19  85 CALM      30.27F
CHALLIS        MOCLDY    21  14  74 CALM      30.26F
$$

IDZ002-004-006-007-026-191000-
NORTHERN IDAHO


CITY           SKY/WX    TMP DP  RH WIND       PRES   REMARKS
LEWISTON       CLOUDY    40  27  59 SE6       30.14F
LOWELL           N/A     31  31 100 CALM      30.26F
COEUR D`ALENE  CLOUDY    27  26  96 NE5       30.12F WCI  22
MULLAN PASS    MOCLDY    22  18  85 S8G16     30.03F WCI  12
$$



USA.gov is the U.S. government's official web portal to all federal, state and local government web resources and services.